Find PRSC-EO1

NORAD ID: 62726 Int'l Des: NNA 2025-012 Owner: SUPA Country: PK operational
LEOCIRCULARRETROGRADESSO

リアルタイム位置

3D地球を読み込み中...

PRSC-EO1について

説明を読み込み中...

次回通過

Passes for default location (London). Set your location on the main map for personalized predictions.

高度履歴

Loading altitude history...

軌道要素

1 62726U 25012B 26104.18412718 .00002461 00000-0 11522-3 0 9995
2 62726 97.4260 178.1741 0010316 134.6301 225.5777 15.20629492 68527
Epoch: Apr 14, 2026 • Age: 11 hours

現在のステータス

高度 520.1 km
速度 7.60 km/s
衛星直下点 -25.20°S, 108.86°E
打ち上げ日 Jan 17, 2025
運用期間 1.2 years
タイプ other

技術仕様

分類 Payload
質量 500.00 kg
乾燥質量 500.00 kg
総質量 500.00 kg
長さ 2.00 m
直径 1.50 m
スパン 8.00 m
形状 Box + 2 Pan
製造者 SUPA
バスタイプ PRSC-EO
フェーズステータス In Orbit
所有者/国 SUPA/PK

Most Searched